EN

Hourly Weather Acandi

Today, 24 November, Tuesday

Time Temperature Precipitation Wind Pressure Humidity
00:00 +26°C° 0 mm 2 mps 758 mmHg 96%
01:00 +27°C° 0 mm 2 mps 758 mmHg 98%
02:00 +26°C° 0.2 mm 2 mps 758 mmHg 98%
03:00 +26°C° 0.2 mm 2 mps 757 mmHg 98%
04:00 +26°C° 0.2 mm 2 mps 757 mmHg 98%
05:00 +27°C° 0.3 mm 2 mps 758 mmHg 97%
06:00 +27°C° 0.3 mm 2 mps 758 mmHg 96%
07:00 +27°C° 0.3 mm 1 mps 758 mmHg 94%
08:00 +29°C° 0 mm 1 mps 759 mmHg 85%
09:00 +31°C° 0 mm 2 mps 759 mmHg 76%
10:00 +34°C° 0 mm 2 mps 759 mmHg 66%
11:00 +34°C° 0.1 mm 2 mps 759 mmHg 65%
12:00 +35°C° 0.1 mm 3 mps 758 mmHg 63%
13:00 +35°C° 0.1 mm 3 mps 757 mmHg 62%
14:00 +34°C° 0.1 mm 3 mps 757 mmHg 68%
15:00 +33°C° 0.1 mm 3 mps 756 mmHg 74%
16:00 +33°C° 0.1 mm 3 mps 756 mmHg 81%
17:00 +30°C° 0.1 mm 3 mps 756 mmHg 86%
18:00 +29°C° 0.1 mm 3 mps 757 mmHg 92%
19:00 +28°C° 0.1 mm 3 mps 757 mmHg 98%
20:00 +27°C° 0.4 mm 3 mps 758 mmHg 97%
21:00 +27°C° 0.4 mm 2 mps 758 mmHg 97%
22:00 +27°C° 0.4 mm 2 mps 759 mmHg 97%
23:00 +27°C° 1.1 mm 2 mps 758 mmHg 97%

Tomorrow, 25 November, Wednesday

Time Temperature Precipitation Wind Pressure Humidity
00:00 +27°C° 1.1 mm 2 mps 758 mmHg 96%
01:00 +27°C° 1.1 mm 2 mps 758 mmHg 96%
02:00 +27°C° 1.5 mm 1 mps 758 mmHg 97%
03:00 +27°C° 1.5 mm 1 mps 757 mmHg 97%
04:00 +27°C° 1.5 mm 1 mps 757 mmHg 98%
05:00 +27°C° 0.3 mm 1 mps 757 mmHg 97%
06:00 +27°C° 0.3 mm 1 mps 758 mmHg 97%
07:00 +28°C° 0.3 mm 1 mps 758 mmHg 96%
08:00 +30°C° 0 mm 2 mps 758 mmHg 87%
09:00 +32°C° 0 mm 2 mps 759 mmHg 78%
10:00 +35°C° 0 mm 2 mps 759 mmHg 68%
11:00 +34°C° 0.7 mm 2 mps 758 mmHg 76%
12:00 +32°C° 0.7 mm 2 mps 758 mmHg 83%
13:00 +31°C° 0.7 mm 2 mps 757 mmHg 90%
14:00 +31°C° 1.2 mm 1 mps 757 mmHg 92%
15:00 +30°C° 1.2 mm 1 mps 756 mmHg 94%
16:00 +30°C° 1.2 mm 1 mps 756 mmHg 96%
17:00 +29°C° 1.6 mm 1 mps 757 mmHg 96%
18:00 +28°C° 1.6 mm 2 mps 757 mmHg 97%
19:00 +27°C° 1.6 mm 2 mps 758 mmHg 97%
20:00 +27°C° 0.4 mm 2 mps 758 mmHg 97%
21:00 +27°C° 0.4 mm 2 mps 759 mmHg 97%
22:00 +27°C° 0.4 mm 2 mps 759 mmHg 96%
23:00 +26°C° 0.4 mm 2 mps 759 mmHg 97%

Day after tomorrow, 26 November, Thursday

Time Temperature Precipitation Wind Pressure Humidity
00:00 +26°C° 0.4 mm 2 mps 758 mmHg 97%
01:00 +26°C° 0.4 mm 2 mps 758 mmHg 97%
02:00 +26°C° 0.3 mm 2 mps 758 mmHg 97%
03:00 +26°C° 0.3 mm 2 mps 757 mmHg 98%
04:00 +26°C° 0.3 mm 2 mps 757 mmHg 98%
05:00 +26°C° 0.3 mm 2 mps 757 mmHg 98%
06:00 +26°C° 0.3 mm 2 mps 758 mmHg 97%
07:00 +27°C° 0.3 mm 2 mps 758 mmHg 97%
08:00 +28°C° 0.3 mm 2 mps 758 mmHg 93%
09:00 +30°C° 0.3 mm 3 mps 759 mmHg 88%
10:00 +31°C° 0.3 mm 3 mps 759 mmHg 84%
11:00 +31°C° 0.9 mm 3 mps 758 mmHg 85%
12:00 +31°C° 0.9 mm 2 mps 757 mmHg 87%
13:00 +31°C° 0.9 mm 2 mps 757 mmHg 89%
14:00 +31°C° 0.7 mm 2 mps 756 mmHg 90%
15:00 +31°C° 0.7 mm 2 mps 756 mmHg 91%
16:00 +30°C° 0.7 mm 1 mps 756 mmHg 93%
17:00 +29°C° 0.5 mm 2 mps 756 mmHg 94%
18:00 +28°C° 0.5 mm 2 mps 757 mmHg 95%
19:00 +27°C° 0.5 mm 2 mps 757 mmHg 97%
20:00 +27°C° 0.2 mm 2 mps 758 mmHg 97%
21:00 +26°C° 0.2 mm 2 mps 758 mmHg 97%
22:00 +26°C° 0.2 mm 3 mps 759 mmHg 98%
23:00 +26°C° 0 mm 3 mps 758 mmHg 98%

27 November, Friday

Time Temperature Precipitation Wind Pressure Humidity
00:00 +26°C° 0 mm 2 mps 758 mmHg 98%
01:00 +26°C° 0 mm 2 mps 758 mmHg 98%
02:00 +26°C° 0 mm 2 mps 758 mmHg 98%
03:00 +26°C° 0 mm 2 mps 757 mmHg 98%
04:00 +26°C° 0 mm 2 mps 757 mmHg 97%
05:00 +26°C° 0.1 mm 2 mps 758 mmHg 97%
06:00 +26°C° 0.1 mm 2 mps 758 mmHg 97%
07:00 +26°C° 0.1 mm 2 mps 758 mmHg 97%
08:00 +29°C° 0 mm 2 mps 759 mmHg 87%
09:00 +31°C° 0 mm 2 mps 759 mmHg 78%
10:00 +34°C° 0 mm 2 mps 759 mmHg 69%
11:00 +32°C° 0.6 mm 2 mps 758 mmHg 76%
12:00 +31°C° 0.6 mm 2 mps 758 mmHg 83%
13:00 +30°C° 0.6 mm 2 mps 757 mmHg 91%
14:00 +30°C° 0.9 mm 2 mps 757 mmHg 92%
15:00 +30°C° 0.9 mm 2 mps 756 mmHg 93%
16:00 +30°C° 0.9 mm 1 mps 756 mmHg 94%
17:00 +29°C° 0.7 mm 2 mps 756 mmHg 95%
18:00 +28°C° 0.7 mm 2 mps 757 mmHg 96%
19:00 +27°C° 0.7 mm 2 mps 758 mmHg 98%
20:00 +27°C° 0.1 mm 2 mps 758 mmHg 98%
21:00 +26°C° 0.1 mm 2 mps 759 mmHg 97%
22:00 +26°C° 0.1 mm 2 mps 759 mmHg 97%
23:00 +26°C° 0.1 mm 2 mps 759 mmHg 97%

28 November, Saturday

Time Temperature Precipitation Wind Pressure Humidity
00:00 +26°C° 0.1 mm 2 mps 758 mmHg 98%
01:00 +26°C° 0.1 mm 2 mps 758 mmHg 98%
02:00 +25°C° 0.2 mm 2 mps 758 mmHg 98%
03:00 +25°C° 0.2 mm 2 mps 758 mmHg 98%
04:00 +25°C° 0.2 mm 2 mps 757 mmHg 98%
05:00 +26°C° 0.2 mm 2 mps 758 mmHg 97%
06:00 +26°C° 0.2 mm 2 mps 758 mmHg 97%
07:00 +26°C° 0.2 mm 2 mps 759 mmHg 96%
08:00 +28°C° 0.1 mm 2 mps 759 mmHg 90%
09:00 +30°C° 0.1 mm 2 mps 759 mmHg 83%
10:00 +32°C° 0.1 mm 2 mps 760 mmHg 76%
11:00 +31°C° 0.5 mm 2 mps 759 mmHg 80%
12:00 +31°C° 0.5 mm 2 mps 758 mmHg 83%
13:00 +31°C° 0.5 mm 2 mps 758 mmHg 86%
14:00 +30°C° 0.5 mm 1 mps 757 mmHg 89%
15:00 +30°C° 0.5 mm 1 mps 757 mmHg 91%
16:00 +29°C° 0.5 mm 1 mps 756 mmHg 93%
17:00 +29°C° 0.3 mm 1 mps 757 mmHg 95%
18:00 +28°C° 0.3 mm 1 mps 757 mmHg 96%
19:00 +27°C° 0.3 mm 1 mps 758 mmHg 98%
20:00 +27°C° 0.1 mm 1 mps 758 mmHg 98%
21:00 +26°C° 0.1 mm 1 mps 759 mmHg 98%
22:00 +26°C° 0.1 mm 1 mps 759 mmHg 98%
23:00 +26°C° 1 mm 1 mps 759 mmHg 98%

29 November, Sunday

Time Temperature Precipitation Wind Pressure Humidity
00:00 +26°C° 1 mm 1 mps 759 mmHg 98%
01:00 +26°C° 1 mm 2 mps 759 mmHg 98%
02:00 +26°C° 1.4 mm 2 mps 758 mmHg 98%
03:00 +26°C° 1.4 mm 1 mps 758 mmHg 98%
04:00 +26°C° 1.4 mm 1 mps 758 mmHg 98%
05:00 +26°C° 0.5 mm 1 mps 758 mmHg 98%
06:00 +26°C° 0.5 mm 1 mps 759 mmHg 97%
07:00 +26°C° 0.5 mm 1 mps 759 mmHg 97%
08:00 +27°C° 0.2 mm 1 mps 759 mmHg 94%
09:00 +28°C° 0.2 mm 1 mps 760 mmHg 90%
10:00 +29°C° 0.2 mm 1 mps 760 mmHg 86%
11:00 +30°C° 0.2 mm 1 mps 759 mmHg 87%
12:00 +30°C° 0.2 mm 1 mps 758 mmHg 87%
13:00 +30°C° 0.2 mm 1 mps 758 mmHg 87%
14:00 +30°C° 0.5 mm 1 mps 757 mmHg 89%
15:00 +30°C° 0.5 mm 2 mps 757 mmHg 91%
16:00 +30°C° 0.5 mm 2 mps 757 mmHg 94%
17:00 +29°C° 0.5 mm 3 mps 757 mmHg 95%
18:00 +28°C° 0.5 mm 3 mps 758 mmHg 96%
19:00 +27°C° 0.5 mm 3 mps 758 mmHg 98%
20:00 +26°C° 0.5 mm 3 mps 759 mmHg 98%
21:00 +26°C° 0.5 mm 2 mps 759 mmHg 98%
22:00 +26°C° 0.5 mm 2 mps 759 mmHg 97%
23:00 +26°C° 0.5 mm 2 mps 759 mmHg 97%
Show more